| time (UTC) | temp F | wind direction | speed MPH | gust MPH | rain 1hr in | rain 24hr in | rain mn in | humidity % | barometer mb |
| 20260506211510 | 66 | 212 | 0.0 | 11.0 | 0.00 | 0.11 | 0.11 | 85 | 1007.7 |
| 20260506210009 | 67 | 219 | 3.0 | 16.0 | 0.00 | 0.11 | 0.11 | 84 | 1007.8 |
| 20260506204509 | 67 | 213 | 6.0 | 14.0 | 0.00 | 0.11 | 0.11 | 85 | 1007.5 |
| 20260506203007 | 67 | 209 | 6.0 | 17.0 | 0.00 | 0.11 | 0.11 | 85 | 1007.7 |
| 20260506201506 | 67 | 204 | 8.0 | 19.0 | 0.00 | 0.11 | 0.11 | 85 | 1007.6 |
| 20260506200004 | 66 | 224 | 7.0 | 17.0 | 0.00 | 0.11 | 0.11 | 85 | 1007.6 |
| 20260506194502 | 66 | 203 | 10.0 | 16.0 | 0.00 | 0.11 | 0.11 | 87 | 1007.7 |
| 20260506193059 | 65 | 232 | 13.0 | 25.0 | 0.00 | 0.11 | 0.11 | 88 | 1007.9 |
| 20260506191557 | 63 | 217 | 10.0 | 19.0 | 0.00 | 0.11 | 0.11 | 91 | 1008.1 |
| 20260506190058 | 62 | 218 | 6.0 | 18.0 | 0.00 | 0.11 | 0.11 | 92 | 1008.2 |
| 20260506184555 | 62 | 240 | 11.0 | 14.0 | 0.00 | 0.11 | 0.11 | 92 | 1008.4 |
| 20260506183058 | 62 | 214 | 3.0 | 17.0 | 0.00 | 0.11 | 0.11 | 92 | 1008.4 |
| 20260506181618 | 61 | 217 | 9.0 | 19.0 | 0.00 | 0.11 | 0.11 | 92 | 1008.5 |
| 20260506180049 | 61 | 212 | 10.0 | 23.0 | 0.00 | 0.11 | 0.11 | 92 | 1008.7 |
| 20260506174547 | 61 | 220 | 8.0 | 25.0 | 0.00 | 0.11 | 0.11 | 93 | 1008.7 |
| 20260506173057 | 60 | 214 | 9.0 | 21.0 | 0.00 | 0.11 | 0.11 | 93 | 1008.7 |
| 20260506171543 | 60 | 216 | 11.0 | 25.0 | 0.00 | 0.11 | 0.11 | 93 | 1008.8 |
| 20260506170042 | 60 | 212 | 13.0 | 26.0 | 0.00 | 0.11 | 0.11 | 93 | 1008.7 |
| 20260506164543 | 60 | 208 | 8.0 | 26.0 | 0.01 | 0.11 | 0.11 | 93 | 1008.7 |
| 20260506163042 | 61 | 201 | 10.0 | 22.0 | 0.02 | 0.11 | 0.11 | 94 | 1008.9 |
| 20260506161537 | 61 | 256 | 12.0 | 22.0 | 0.04 | 0.11 | 0.11 | 94 | 1009.1 |
| 20260506160035 | 60 | 199 | 5.0 | 20.0 | 0.04 | 0.11 | 0.11 | 94 | 1008.9 |
| 20260506154533 | 60 | 213 | 3.0 | 18.0 | 0.05 | 0.10 | 0.10 | 93 | 1009.7 |
| 20260506153036 | 60 | 241 | 2.0 | 24.0 | 0.06 | 0.09 | 0.09 | 93 | 1009.9 |
| 20260506151530 | 60 | 210 | 12.0 | 18.0 | 0.05 | 0.07 | 0.07 | 92 | 1010.1 |
| 20260506150032 | 60 | 210 | 5.0 | 15.0 | 0.06 | 0.07 | 0.07 | 92 | 1009.8 |
| 20260506144527 | 60 | 212 | 3.0 | 16.0 | 0.05 | 0.05 | 0.05 | 91 | 1009.7 |
| 20260506143028 | 61 | 201 | 7.0 | 22.0 | 0.03 | 0.03 | 0.03 | 89 | 1010.0 |
| 20260506141522 | 61 | 214 | 5.0 | 19.0 | 0.02 | 0.02 | 0.02 | 89 | 1010.1 |
| 20260506140023 | 62 | 205 | 8.0 | 24.0 | 0.01 | 0.01 | 0.01 | 87 | 1009.9 |
| 20260506134517 | 63 | 193 | 11.0 | 22.0 | 0.00 | 0.00 | 0.00 | 83 | 1009.8 |
| 20260506133015 | 63 | 215 | 8.0 | 20.0 | 0.00 | 0.00 | 0.00 | 83 | 1009.7 |
| 20260506131521 | 63 | 191 | 9.0 | 20.0 | 0.00 | 0.00 | 0.00 | 84 | 1009.7 |
| 20260506130012 | 63 | 214 | 15.0 | 24.0 | 0.00 | 0.00 | 0.00 | 83 | 1009.9 |
| 20260506124509 | 63 | 211 | 9.0 | 26.0 | 0.00 | 0.00 | 0.00 | 82 | 1010.0 |
| 20260506123008 | 63 | 231 | 13.0 | 28.0 | 0.00 | 0.00 | 0.00 | 82 | 1010.1 |
| 20260506121505 | 64 | 212 | 15.0 | 28.0 | 0.00 | 0.00 | 0.00 | 81 | 1010.0 |
| 20260506120013 | 64 | 209 | 15.0 | 27.0 | 0.00 | 0.00 | 0.00 | 82 | 1009.7 |
| 20260506114508 | 64 | 217 | 15.0 | 27.0 | 0.00 | 0.00 | 0.00 | 81 | 1009.6 |
| 20260506113104 | 64 | 183 | 12.0 | 26.0 | 0.00 | 0.00 | 0.00 | 82 | 1009.5 |
| 20260506111600 | 63 | 216 | 5.0 | 23.0 | 0.00 | 0.00 | 0.00 | 82 | 1009.5 |
| 20260506110106 | 63 | 207 | 12.0 | 24.0 | 0.00 | 0.00 | 0.00 | 82 | 1009.5 |
| 20260506104601 | 63 | 210 | 12.0 | 25.0 | 0.00 | 0.00 | 0.00 | 82 | 1009.3 |
| 20260506103057 | 63 | 195 | 11.0 | 22.0 | 0.00 | 0.00 | 0.00 | 83 | 1009.3 |
| 20260506101554 | 63 | 213 | 9.0 | 25.0 | 0.00 | 0.00 | 0.00 | 83 | 1009.3 |
| 20260506100053 | 63 | 208 | 13.0 | 29.0 | 0.00 | 0.00 | 0.00 | 82 | 1009.2 |
| 20260506094551 | 63 | 218 | 5.0 | 24.0 | 0.00 | 0.00 | 0.00 | 82 | 1009.2 |
| 20260506093048 | 63 | 229 | 11.0 | 22.0 | 0.00 | 0.00 | 0.00 | 82 | 1009.3 |
| 20260506091552 | 63 | 191 | 12.0 | 22.0 | 0.00 | 0.00 | 0.00 | 81 | 1009.4 |
| 20260506090042 | 64 | 207 | 10.0 | 26.0 | 0.00 | 0.00 | 0.00 | 81 | 1009.3 |
| 20260506084545 | 64 | 212 | 11.0 | 25.0 | 0.00 | 0.00 | 0.00 | 80 | 1009.3 |
| 20260506083036 | 65 | 211 | 12.0 | 25.0 | 0.00 | 0.00 | 0.00 | 79 | 1009.3 |
| 20260506081533 | 65 | 218 | 9.0 | 20.0 | 0.00 | 0.00 | 0.00 | 79 | 1009.4 |
| 20260506073026 | 65 | 235 | 9.0 | 23.0 | 0.00 | 0.00 | 0.00 | 78 | 1009.6 |
| 20260506071525 | 65 | 211 | 9.0 | 19.0 | 0.00 | 0.00 | 0.00 | 77 | 1009.7 |
| 20260506061513 | 65 | 216 | 2.0 | 17.0 | 0.00 | 0.00 | 0.00 | 75 | 1010.1 |
| 20260506044506 | 66 | 210 | 0.0 | 5.0 | 0.00 | 0.00 | 0.00 | 71 | 1010.6 |
| 20260506043003 | 66 | 208 | 0.0 | 6.0 | 0.00 | 0.00 | 0.00 | 70 | 1010.7 |
| 20260506041501 | 66 | 212 | 2.0 | 12.0 | 0.00 | 0.00 | 0.00 | 69 | 1010.7 |
| 20260506040100 | 66 | 180 | 2.0 | 11.0 | 0.00 | 0.00 | 0.00 | 69 | 1010.7 |
| 20260506034615 | 66 | 220 | 0.0 | 11.0 | 0.00 | 0.00 | 0.00 | 69 | 1010.7 |
| 20260506033058 | 66 | 217 | 0.0 | 9.0 | 0.00 | 0.00 | 0.00 | 68 | 1010.6 |
| 20260506031607 | 66 | 218 | 0.0 | 9.0 | 0.00 | 0.00 | 0.00 | 68 | 1010.5 |
| 20260506030057 | 66 | 223 | 1.0 | 10.0 | 0.00 | 0.00 | 0.00 | 69 | 1010.6 |
| 20260506024616 | 66 | 214 | 1.0 | 10.0 | 0.00 | 0.00 | 0.00 | 69 | 1010.6 |
| 20260506023057 | 66 | 181 | 0.0 | 4.0 | 0.00 | 0.00 | 0.00 | 67 | 1010.8 |
| 20260506021558 | 67 | 189 | 0.0 | 10.0 | 0.00 | 0.00 | 0.00 | 66 | 1010.8 |
| 20260506020058 | 67 | 206 | 1.0 | 9.0 | 0.00 | 0.00 | 0.00 | 65 | 1010.7 |
| 20260506014555 | 68 | 200 | 0.0 | 8.0 | 0.00 | 0.00 | 0.00 | 64 | 1010.6 |
| 20260506013107 | 68 | 201 | 0.0 | 14.0 | 0.00 | 0.00 | 0.00 | 63 | 1010.3 |
| 20260506011606 | 69 | 204 | 0.0 | 4.0 | 0.00 | 0.00 | 0.00 | 62 | 1010.1 |
| 20260506010056 | 70 | 210 | 1.0 | 6.0 | 0.00 | 0.00 | 0.00 | 60 | 1010.0 |
| 20260506004554 | 70 | 203 | 0.0 | 4.0 | 0.00 | 0.00 | 0.00 | 59 | 1009.9 |
| 20260506003052 | 71 | 210 | 0.0 | 12.0 | 0.00 | 0.00 | 0.00 | 57 | 1009.7 |
| 20260506001551 | 72 | 203 | 0.0 | 3.0 | 0.00 | 0.00 | 0.00 | 55 | 1009.6 |
| 20260506000052 | 72 | 209 | 0.0 | 14.0 | 0.00 | 0.00 | 0.00 | 54 | 1009.4 |
| 20260505234551 | 73 | 209 | 2.0 | 13.0 | 0.00 | 0.00 | 0.00 | 52 | 1009.2 |
| 20260505233050 | 74 | 212 | 7.0 | 18.0 | 0.00 | 0.00 | 0.00 | 50 | 1009.1 |
| 20260505231550 | 75 | 208 | 7.0 | 20.0 | 0.00 | 0.00 | 0.00 | 49 | 1009.3 |
| 20260505230101 | 76 | 208 | 4.0 | 24.0 | 0.00 | 0.00 | 0.00 | 48 | 1009.2 |
| 20260505224549 | 76 | 213 | 7.0 | 28.0 | 0.00 | 0.00 | 0.00 | 47 | 1009.2 |
| 20260505223056 | 77 | 155 | 4.0 | 22.0 | 0.00 | 0.00 | 0.00 | 47 | 1009.2 |
| 20260505221548 | 78 | 220 | 12.0 | 29.0 | 0.00 | 0.00 | 0.00 | 45 | 1009.3 |
| 20260505220047 | 79 | 210 | 13.0 | 28.0 | 0.00 | 0.00 | 0.00 | 45 | 1009.1 |
| 20260505214547 | 78 | 189 | 12.0 | 25.0 | 0.00 | 0.00 | 0.00 | 46 | 1009.2 |
| 20260505213055 | 79 | 199 | 12.0 | 30.0 | 0.00 | 0.00 | 0.00 | 45 | 1009.1 |